Weather History for Montrose, CO

Change the Weather History Date:

Friday, August 31, 2012

  Actual Average Record
Temperature  
Mean Temperature 71 °F 68 °F  
Max Temperature 85 °F 83 °F 90 °F (2013)
Min Temperature 56 °F 52 °F 46 °F (2005)
Degree Days  
Heating Degree Days 0 1  
Month to date heating degree days 0 3  
Since 1 June heating degree days 6 44  
Since 1 July heating degree days 0 5  
Cooling Degree Days 6 3  
Month to date cooling degree days 254 183  
Year to date cooling degree days 856 605  
Since 1 June cooling degree days 833 588  
Growing Degree Days 18 (Base 50)    
Moisture  
Dew Point 48 °F    
Average Humidity 52    
Maximum Humidity 77    
Minimum Humidity 26    
Precipitation  
Precipitation 0.00 in 0.04 in 0.33 in (1997)
Month to date precipitation 0.74 1.26  
Year to date precipitation 4.05 7.33  
Sea Level Pressure  
Sea Level Pressure 29.96 in    
Wind  
Wind Speed 6 mph (SSE)    
Max Wind Speed 26 mph    
Max Gust Speed 36 mph    
Visibility 10 miles    
Events Thunderstorm    
T = Trace of Precipitation, MM = Missing Value Source: NWS Daily Summary

Daily Weather History Graph

Daily Weather History Graph

Search for Another Location

Airport:

Trip Planner

Search our weather history database for the weather conditions in past years. The results will help you decide how hot, cold, wet, or windy it might be!

Date:

Astronomy

Aug. 31, 2012 Rise Set
Actual Time 6:40 AM MDT 7:42 PM MDT
Civil Twilight 6:13 AM MDT 8:09 PM MDT
Nautical Twilight 5:40 AM MDT 8:41 PM MDT
Astronomical Twilight 5:07 AM MDT 9:15 PM MDT
Moon 7:31 PM MDT (8/31) 6:48 AM MDT (8/31)
Length of Visible Light 13h 56m
Length of Day
13h 01m
Full, 100% of the Moon is Illuminated
Aug 31
Full
Sep 8
Last Quarter
Sep 15
New
Sep 22
First Quarter
Sep 29
Full

Hourly Weather History & Observations

Time (MDT) Temp. Dew Point Humidity Pressure Visibility Wind Dir Wind Speed Gust Speed Precip Events Conditions
12:53 AM 63.0 °F 50.0 °F 63% 29.90 in 10.0 mi South 6.9 mph - N/A   Clear
1:53 AM 61.0 °F 48.0 °F 62% 29.90 in 10.0 mi East 3.5 mph - N/A   Clear
2:53 AM 57.9 °F 48.0 °F 70% 29.90 in 10.0 mi SSE 8.1 mph - N/A   Clear
3:53 AM 57.0 °F 48.0 °F 72% 29.95 in 10.0 mi East 4.6 mph - N/A   Scattered Clouds
4:53 AM 55.9 °F 48.0 °F 75% 29.96 in 10.0 mi SSE 6.9 mph - N/A   Partly Cloudy
5:53 AM 57.0 °F 46.9 °F 69% 29.96 in 10.0 mi SSE 9.2 mph - N/A   Clear
6:53 AM 57.0 °F 46.9 °F 69% 29.98 in 10.0 mi SSE 5.8 mph - N/A   Clear
7:53 AM 60.1 °F 46.9 °F 62% 30.00 in 10.0 mi SSE 6.9 mph - N/A   Clear
8:53 AM 66.0 °F 48.9 °F 54% 29.99 in 10.0 mi Calm Calm - N/A   Clear
9:53 AM 69.1 °F 48.0 °F 47% 29.99 in 10.0 mi WNW 5.8 mph - N/A   Clear
10:53 AM 73.0 °F 48.0 °F 41% 29.99 in 10.0 mi West 3.5 mph - N/A   Clear
11:53 AM 73.9 °F 46.9 °F 38% 29.99 in 10.0 mi NNW 3.5 mph - N/A   Clear
12:53 PM 81.0 °F 48.9 °F 33% 29.95 in 10.0 mi Variable 4.6 mph - N/A   Clear
1:53 PM 82.9 °F 45.0 °F 26% 29.92 in 10.0 mi Calm Calm - N/A   Clear
2:49 PM 82.4 °F 46.4 °F 28% 30.17 in 10.0 mi South 24.2 mph 32.2 mph N/A Thunderstorm Partly Cloudy
2:53 PM 81.0 °F 43.0 °F 26% 29.94 in 10.0 mi South 25.3 mph 35.7 mph N/A Thunderstorm Partly Cloudy
2:58 PM 80.6 °F 44.6 °F 28% 30.16 in 10.0 mi South 19.6 mph 35.7 mph N/A   Scattered Clouds
3:53 PM 80.1 °F 45.0 °F 29% 29.92 in 10.0 mi South 6.9 mph - N/A   Clear
4:53 PM 82.9 °F 44.1 °F 25% 29.91 in 10.0 mi ESE 8.1 mph - N/A   Partly Cloudy
5:53 PM 80.1 °F 48.9 °F 34% 29.91 in 10.0 mi West 5.8 mph - N/A   Clear
6:53 PM 79.0 °F 48.0 °F 34% 29.91 in 10.0 mi Calm Calm - N/A   Clear
7:53 PM 75.0 °F 48.9 °F 40% 29.92 in 10.0 mi ESE 3.5 mph - N/A   Clear
8:53 PM 73.0 °F 51.1 °F 46% 29.93 in 10.0 mi SSE 3.5 mph - N/A   Partly Cloudy
9:53 PM 69.1 °F 48.9 °F 49% 29.95 in 10.0 mi SSE 4.6 mph - N/A   Clear
10:53 PM 66.0 °F 48.9 °F 54% 29.95 in 10.0 mi SE 8.1 mph - N/A   Clear
11:53 PM 62.1 °F 48.9 °F 62% 29.97 in 10.0 mi South 8.1 mph - N/A   Clear